Regional Weather Roundup
Issued by NWS

Home | Current Version | Previous Version | Graphics & Text | Print | Product List | Glossary On
Versions: 1 2 3 4 5 6 7 8 9 10 11 12 13 14 15 16 17 18 19 20 21 22 23 24 25 26 27 28 29 30 31 32 33 34 35 36 37 38 39 40 41 42 43 44 45 46 47 48 49 50
000
ASUS45 KCYS 271410
RWRWY

WYOMING REGIONAL WEATHER ROUNDUP
NATIONAL WEATHER SERVICE CHEYENNE WY
800 AM MDT SUN JUL 27 2014

NOTE:  "FAIR" INDICATES FEW OR NO CLOUDS BELOW 12,000 FEET
WITH NO SIGNIFICANT WEATHER AND/OR OBSTRUCTIONS TO VISIBILITY.

WYZ001-271500-
YELLOWSTONE NATIONAL PARK

CITY           SKY/WX    TMP DP  RH WIND       PRES   REMARKS
LK YELLOWSTONE   N/A     47  38  71 CALM      30.53S
W YELLOWSTONE  NOT AVBL

$$
WYZ002>013-054>058-071-098>099-271500-
NORTHERN WYOMING

CITY           SKY/WX    TMP DP  RH WIND       PRES   REMARKS
JACKSON        SUNNY     48  34  57 CALM      30.46R
CODY           NOT AVBL
GREYBULL       SUNNY     59  36  42 CALM      30.32R
WORLAND        SUNNY     62  34  35 SW5       30.34R
SHERIDAN       SUNNY     59  45  59 NE3       30.35R
BUFFALO        SUNNY     62  40  44 N6        30.40R
GILLETTE       SUNNY     62  42  47 CALM      30.36R
HULETT         FAIR      61  46  59 MISG      30.37
NEWCASTLE      FAIR      61  34  36 SE5       30.36

$$
WYZ014>020-022>026-101>103-271500-
CENTRAL WYOMING

CITY           SKY/WX    TMP DP  RH WIND       PRES   REMARKS
BIG PINEY      SUNNY     54  23  30 CALM      30.48R
PINEDALE       SUNNY     50  32  50 NW3       30.48R
DUBOIS         FAIR      48  28  46 NW12      30.51R
LANDER         SUNNY     63  36  36 NW6       30.40R
RIVERTON       SUNNY     64  36  35 NE7       30.40R
CASPER         SUNNY     62  38  40 VRB3      30.39R
DOUGLAS        SUNNY     63  42  46 S3        30.39R

$$
WYZ021-027>030-104>119-271500-
SOUTHERN WYOMING

CITY           SKY/WX    TMP DP  RH WIND       PRES   REMARKS
EVANSTON       MOSUNNY   63  29  27 E6        30.43R
KEMMERER       SUNNY     55  28  35 N12       30.46R
FORT BRIDGER   FAIR      61  25  25 N5        30.46S
ROCK SPRINGS   SUNNY     63  32  31 E12       30.43R
DIXON          FAIR      61  44  53 E3        30.43R
RAWLINS        SUNNY     61  41  47 NE16      30.43R
SARATOGA       FAIR      57  41  54 CALM      30.44S
LARAMIE        SUNNY     58  48  69 CALM      30.46R
CHEYENNE       CLOUDY    62  58  86 NE6       30.42R
TORRINGTON     CLOUDY    65  44  46 E3        30.34R
PINE BLUFFS    CLOUDY    63  54  72 E8        30.39R

$$



USA.gov is the U.S. government's official web portal to all federal, state and local government web resources and services.